Weather Roundup
Issued by NWS Chicago, IL

Home | Current Version | Previous Version | Graphics & Text | Print | Product List | Glossary On
Versions: 1 2 3 4 5 6 7 8 9 10 11 12 13 14 15 16 17 18 19 20 21 22 23 24 25 26 27 28 29 30 31 32 33 34 35 36 37 38 39 40 41 42 43 44 45 46 47 48 49 50
000
NZUS59 KLOT 152110
HRRLOT

CHICAGO AREA WEATHER ROUNDUP
NATIONAL WEATHER SERVICE CHICAGO/ROMEOVILLE IL
400 PM CDT MON SEP 15 2014

NOTE: "FAIR" INDICATES FEW OR NO CLOUDS BELOW 12,000 FEET WITH NO
SIGNIFICANT WEATHER AND/OR OBSTRUCTIONS TO VISIBILITY.

* THESE STATIONS ARE NOT UNDER NWS QUALITY CONTROL. THEY ALSO MAY NOT
  REPORT WEATHER SUCH AS PRECIPITATION OR FOG.

ILZ005-006-012>014-019>023-152200-
NORTHEAST ILLINOIS

CITY           SKY/WX    TMP DP  RH WIND       PRES   REMARKS
OHARE          LGT RAIN  60  51  72 NW9       30.09R
MIDWAY         CLOUDY    59  53  80 W6        30.09S
AURORA         CLOUDY    57  52  83 CALM      30.10R
LANSING*       CLOUDY    56  54  92 CALM      30.09S
JOLIET*        DRIZZLE   55  53  92 CALM      30.09S
WAUKEGAN       CLOUDY    60  51  72 NW3       30.09R
DUPAGE AIRPORT CLOUDY    57  53  86 N7        30.09R FOG
WHEELING       CLOUDY    60  51  72 W6        30.10S
KANKAKEE*      RAIN      56  54  94 E5        30.08S
MORRIS*        DRIZZLE   56  56 100 CALM      30.08R
LEWIS AIRPORT* RAIN      56  54  94 CALM      30.09R
NORTHERLY IS     N/A     59  49  69 W7          N/A
$$

WIZ051-052-058>065-066-070>072-152200-
SOUTHEAST WISCONSIN

CITY           SKY/WX    TMP DP  RH WIND       PRES   REMARKS
MILWAUKEE      CLOUDY    54  52  93 N7        30.11F
KENOSHA*       RAIN      56  54  93 N15       30.11R FOG
RACINE*        LGT RAIN  54  52  93 N8        30.13R FOG
BURLINGTON     CLOUDY    52  50  92 N7        30.11F
WAUKESHA       CLOUDY    52  48  87 NW5       30.12F
WEST BEND      LGT RAIN  52  48  87 NW6       30.11F
$$

INZ001>003-010>013-019-020-152200-
NORTHWEST INDIANA

CITY           SKY/WX    TMP DP  RH WIND       PRES   REMARKS
GARY*          CLOUDY    59  52  77 SW8       30.09S
MICHIGAN CITY* NOT AVBL
RENSSELAER*    NOT AVBL
VALPARAISO     CLOUDY    55  52  89 SW5       30.10R
$$

LMZ740>746-152200-
SOUTHERN LAKE MICHIGAN

STATION/POSITION TIME  SKY/WX   TEMP WIND        PRES    VSBY
                                AIR  DIR/SP/G
                 (UTC)          (F)  (DEG/KT/KT) (MB)    (MI)
HARRISON CRIB    2100            58  260/ 11/ 12   N/A
BURNHAM HARBOR   2100            59  260/  6/  9   N/A
CALUMET HARBOR   2100            58  250/  5/  7 1017.6R
BURNS HARBOR     NOT AVBL
MICHIGAN CITY    2100            56  200/ 10/ 12   N/A
$$

ABBREVIATIONS USED IN REMARKS
   TC - TEMPERATURE IN CELSIUS
  WCI - WIND CHILL INDEX
   HX - HEAT INDEX
  VSB - VISIBILITY
$$


USA.gov is the U.S. government's official web portal to all federal, state and local government web resources and services.